Home > Weather > Seoul > Past weeks

Flag for South Korea Past Weather in Seoul, South Korea — Yesterday and Last 2 Weeks

Now
68 °F

Scattered clouds.


Feels Like: 68 °F
Forecast: 62 / 77 °F
Wind: 9 mph from Northwest

Location: Seoul / Kimp'O International Airport

Current Time: Aug 30, 2016 at 8:37:34 AM

Latest Report: Aug 30, 2016 at 8:00 AM


Visibility: N/A

Pressure: 29.36 "Hg

Humidity: 56%

Dew Point: 52 °F

Location of SeoulLocation

Past Weather in Seoul — Graph

°F

Seoul Temperature Yesterday

Maximum temperature yesterday: 81 °F (at 1:00 PM)
Minimum temperature yesterday: 61 °F (at 3:00 AM)
Average temperature yesterday: 72 °F

High & Low Weather Summary for the Past Weeks

 TemperatureHumidityPressure
High95 °F (Aug 18, 1:00 PM)94% (Aug 26, 4:00 AM)29.92 "Hg (Aug 26, 4:00 AM)
Low59 °F (Aug 27, 5:00 AM)25% (Aug 27, 4:00 PM)29.39 "Hg (Aug 30, 5:00 AM)
Average81 °F60%29.68 "Hg
* Reported Aug 15 7:00 AM — Aug 30 7:00 AM, Seoul, Weather by CustomWeather, © 2016

Note: Actual official high and low records may vary slightly from our data, if they occured in-between our weather recording intervals... More about our weather records

Advertising

Seoul Weather History for the Previous 24 Hours

Scroll right to see more
 ConditionsComfort  
Time TempWeatherWind HumidityBarometerVisibility
7:00 AM
Tue, Aug 30
64 °FPassing clouds.2 mph64%29.39 "HgN/A
6:00 AM64 °FClear.7 mph64%29.39 "Hg10 mi
5:00 AM64 °FClear.7 mph64%29.39 "Hg10 mi
4:00 AM63 °FClear.3 mph73%29.42 "Hg10 mi
3:00 AM66 °FClear.3 mph60%29.45 "Hg10 mi
2:00 AM66 °FClear.3 mph64%29.45 "Hg10 mi
1:00 AM68 °FPassing clouds.2 mph60%29.47 "HgN/A
12:00 AM68 °FPartly cloudy.2 mph60%29.47 "HgN/A
11:00 PM
Mon, Aug 29
72 °FPartly cloudy.5 mph57%29.50 "HgN/A
10:00 PM72 °FPartly cloudy.5 mph57%29.53 "HgN/A
9:00 PM73 °FPartly cloudy.2 mph50%29.53 "HgN/A
8:00 PM75 °FPartly cloudy.3 mph44%29.53 "HgN/A
7:00 PM75 °FBroken clouds.2 mph44%29.53 "HgN/A
6:00 PM77 °FPartly sunny.6 mph39%29.53 "HgN/A
5:00 PM79 °FBroken clouds.7 mph34%29.53 "HgN/A
4:00 PM79 °FBroken clouds.12 mph32%29.53 "HgN/A
3:00 PM81 °FBroken clouds.10 mph30%29.56 "HgN/A
2:00 PM81 °FBroken clouds.10 mph32%29.56 "HgN/A
1:00 PM81 °FScattered clouds.9 mph32%29.59 "HgN/A
12:00 PM77 °FPassing clouds.7 mph36%29.62 "HgN/A
11:00 AM77 °FSunny.13 mph36%29.65 "Hg10 mi
10:00 AM75 °FPassing clouds.12 mph39%29.68 "HgN/A
9:00 AM72 °FScattered clouds.8 mph50%29.68 "HgN/A
8:00 AM68 °FScattered clouds.7 mph60%29.68 "HgN/A
Weather by CustomWeather, © 2016

See weather overviewHow to use our weather pages